DELTA 1 DEB, 42558

Orbit data source: Space-Track

DELTA 1 DEB, 42558 is space debris in SSO originally from a launch on Sun, 23 Jul 1972 UTC launched from the Air Force Western Test Range (AFWTR). Debris objects in space refer to the collection of defunct objects orbiting the Earth. Examples of debris include non-operational satellites, rocket bodies, and fragments generated from explosions, collisions, or faulty payload assembly.

Loading next visibility...
Identifier
42558, 1972-058JR
Orbit
SSO
Country
Flag of USUS
Related business
Manufacturer
Unknown
Mission
Spacecraft
Bus & Motor
Unknown
Mass
Unknown
Launch date (UTC)
1972-07-23 (53 years ago)
Launch vehicle
Unknown
Launch site
Air Force Western Test Range (AFWTR)
Object type
Payload
Rocket body
Debris
Shape & HBR
Unknown shape, 0.1 m
Radar Cross Section
Small (<0.1 m²)

Expand to show TLE details & history
Last TLE update: 1 day ago

TLE from 1 day ago
0 DELTA 1 DEB
1 42558U 72058JR  25298.87013383  .00002452  00000-0  44243-3 0  9998
2 42558  97.8545 268.5639 0038919  53.8089 306.6705 14.66849879636134
Epoch: 2025-10-25T20:52Z
TLE epoch observation values (Epoch: 2025-10-25T20:52:59.562Z)
Latitude
-0.00005°
Longitude
-79.17875°
Altitude
657.828 km
Speed
7.537 km/s
True Right ascension
17h 54m 15s
True Declination
0° 00' 00"
Sunlit
Object was in daylight at epoch
Visualization orbit readout
Latitude
Unknown
Longitude
Unknown
Altitude
Unknown
Speed
Unknown
Apparent Right ascension
Unknown
Apparent Declination
Unknown
Sunlit
N/A
Visualization observer readout
Local Sidereal Time
18:10:19
Azimuth
Unknown
Elevation
Unknown
Doppler factor
Unknown
Orbital elements
Apogee altitude
695.622 km
Perigee altitude
640.775 km
Semi-major axis
7,046.336 km
Eccentricity
0.00389
Inclination
97.8545°
RAAN
268.5639°
Arg. of periapsis
53.8089°
True anomaly
306.31175°
Mean anomaly
306.6705°
Eccentric anomaly
306.49123°
Mean motion
3.66943 °/min
Orbital period
98.11 mins
BSTAR
0.00044243
Loading maneuver chart data...
Computing Atmospheric mass density...
Loading historical data...
Loading historical data...
Loading historical data...
Loading historical data...
Loading historical data...
Loading historical data...
Loading historical data...

Documentation

Showing up to 5 results
|